This demonstration page uses our WeatherBlox Daily Observations layout. Learn more.

Left ArrowRight Arrow

Hourly Observations for October 25, 2016

Temp ( °F °C ) Dew Point ( °F °C ) Humidity (%) Winds ( mph kmh ) Pressure ( in mb ) Visibility ( mi km ) Precip ( " mm )
12:51 am 00:51 Mostly Cloudy 65 18.3 55 12.8 70 70 N 8 13 29.98 1015 10 16 0.00 0.00
1:51 am 01:51 Clear 66 18.9 54 12.2 65 65 SE 5 7 29.97 1015 10 16 0.00 0.00
2:51 am 02:51 Clear 66 18.9 53 11.7 63 63 Calm 29.97 1015 10 16 0.00 0.00
3:51 am 03:51 Clear with Light Rain 62 16.7 53 11.7 73 73 Calm 29.98 1015 10 16 0.00 0.03
4:51 am 04:51 Clear 62 16.7 51 10.6 67 67 Calm 29.98 1015 10 16 0.00 0.03
5:51 am 05:51 Clear 57 13.9 52 11.1 83 83 NNW 3 6 30.01 1016 10 16 0.00 0.00
6:51 am 06:51 Sunny 57 13.9 52 11.1 83 83 NNW 7 11 30.02 1017 10 16 0.00 0.00
7:51 am 07:51 Sunny 66 18.9 53 11.7 63 63 Calm 30.02 1017 10 16 0.00 0.00
8:51 am 08:51 Sunny 72 22.2 52 11.1 50 50 Calm 30.04 1017 10 16 0.00 0.00
9:51 am 09:51 Sunny 75 23.9 52 11.1 45 45 Calm 30.04 1017 10 16 0.00 0.00
10:51 am 10:51 Sunny 78 25.6 50 10 37 37 SSW 3 6 30.02 1017 10 16 0.00 0.00
11:51 am 11:51 Sunny 80 26.7 50 10 35 35 Calm 30.00 1016 10 16 0.00 0.00
12:51 pm 12:51 Sunny 83 28.3 49 9.4 31 31 W 8 13 29.96 1015 10 16 0.00 0.00
1:51 pm 13:51 Sunny 84 28.9 49 9.4 30 30 S 3 6 29.93 1014 10 16 0.00 0.00
2:51 pm 14:51 Sunny 85 29.4 47 8.3 27 27 VRB 5 7 29.91 1013 10 16 0.00 0.00
3:51 pm 15:51 Sunny 85 29.4 47 8.3 27 27 W 9 15 29.92 1013 10 16 0.00 0.00
4:51 pm 16:51 Sunny 83 28.3 47 8.3 28 28 W 7 11 29.92 1013 10 16 0.00 0.00
5:51 pm 17:51 Clear 77 25 48 8.9 36 36 WNW 5 7 29.95 1014 10 16 0.00 0.00
6:51 pm 18:51 Clear 72 22.2 48 8.9 43 43 Calm 29.97 1015 10 16 0.00 0.00
7:51 pm 19:51 Clear with Light Rain 69 20.6 47 8.3 45 45 NNW 7 11 29.97 1015 10 16 0.00 0.03
8:51 pm 20:51 Clear 67 19.4 48 8.9 51 51 Calm 29.97 1015 10 16 0.00 0.03
9:51 pm 21:51 Clear 64 17.8 48 8.9 56 56 Calm 29.99 1016 10 16 0.00 0.00
10:51 pm 22:51 Clear 63 17.2 48 8.9 58 58 SSW 3 6 30.00 1016 10 16 0.00 0.00
11:51 pm 23:51 Clear 61 16.1 48 8.9 63 63 Calm 30.01 1016 10 16 0.00 0.00

Powered by AerisWeather